Regional Weather Roundup
Issued by NWS

Home | Current Version | Previous Version | Graphics & Text | Print | Product List | Glossary On
Versions: 1 2 3 4 5 6 7 8 9 10 11 12 13 14 15 16 17 18 19 20 21 22 23 24 25 26 27 28 29 30 31 32 33 34 35 36 37 38 39 40 41 42 43 44 45 46 47 48 49 50
000
ASUS43 KFSD 120110
RWRSD

WEATHER ROUNDUP FOR SOUTH DAKOTA
NATIONAL WEATHER SERVICE SIOUX FALLS SD
700 PM CST MON DEC 11 2017

NOTE: "FAIR" INDICATES FEW OR NO CLOUDS BELOW 12,000 FEET WITH NO
SIGNIFICANT WEATHER AND/OR OBSTRUCTIONS TO VISIBILITY.


SDZ001>005-009-010-012>017-120200-
NORTHWEST AND NORTH CENTRAL SOUTH DAKOTA

CITY           SKY/WX    TMP DP  RH WIND       PRES   REMARKS
BUFFALO          N/A     30  23  75 NW8       30.31R WCI  22
FAITH            N/A     36  28  73 N20G26    30.35R
MOBRIDGE       PTCLDY    28  23  81 NE7       30.32R WCI  21
$$

SDZ012>016-024>037-041>051-057-063-072>074-120200-
SOUTHWEST AND SOUTH CENTRAL SOUTH DAKOTA

CITY           SKY/WX    TMP DP  RH WIND       PRES   REMARKS
RAPID CTY ARPT CLEAR     29  22  75 N9        30.37R WCI  20
PIERRE         MOCLDY    34  29  82 NW15      30.33S WCI  24
CUSTER         CLEAR     26   3  37 W12       30.33S WCI  16
ELLSWORTH AFB  CLEAR     34  23  64 N17       30.36S WCI  24
PHILIP         CLOUDY    39  29  67 NW10      30.37R
PINE RIDGE     CLEAR     33  24  69 N6        30.38R WCI  28
SPEARFISH      FAIR      36  18  48 W17       30.37S
WINNER         CLOUDY    37  30  75 NW13      30.35R
$$

SDZ004>011-016>023-039-040-120200-
NORTHEAST SOUTH DAKOTA

CITY           SKY/WX    TMP DP  RH WIND       PRES   REMARKS
ABERDEEN       PTCLDY    16  14  92 N6        30.35R WCI   7
WATERTOWN      CLEAR     18  14  84 N15       30.27R WCI   4
BROOKINGS      CLEAR     20  14  77 N18G25    30.27R WCI   5
SISSETON         N/A     18  13  80 NW14      30.32R WCI   4
$$

SDZ017-020-022-023-036>040-048>070-120200-
SOUTHEAST SOUTH DAKOTA

CITY           SKY/WX    TMP DP  RH WIND       PRES   REMARKS
SIOUX FALLS    PTCLDY    25  19  78 N20G29    30.27R WCI  11
HURON          CLEAR     21  16  81 N8        30.34R WCI  11
CHAMBERLAIN    CLEAR     35  27  71 NW15      30.32F WCI  25
MITCHELL       CLEAR     26  19  74 N18G24    30.34R WCI  13
YANKTON        CLEAR     30  24  78 NW18G28   30.30R WCI  18
$$

ABBREVIATIONS USED IN REMARKS
   TC - TEMPERATURE IN CELSIUS
  WCI - WIND CHILL INDEX
   HX - HEAT INDEX
  VSB - VISIBILITY





USA.gov is the U.S. government's official web portal to all federal, state and local government web resources and services.